This demonstration page uses our WeatherBlox Daily Observations layout. Learn more.

Left ArrowRight Arrow

30.21309, -93.2044

Hourly Observations for June 12, 2019

Temp ( °F °C ) Dew Point ( °F °C ) Humidity (%) Winds ( mph kmh ) Pressure ( in mb ) Visibility ( mi km ) Precip ( " mm )
12:15 am 00:15 Clear 72 22.4 63 17.4 73 73 NE 3 6 29.98 1015 10 16 0.00 0.00
12:35 am 00:35 Clear 72 22.4 62 16.9 71 71 ENE 3 6 29.98 1015 10 16 0.00 0.00
12:55 am 00:55 Clear 72 22.3 62 16.9 72 72 Calm 29.98 1015 10 16 0.00 0.00
1:15 am 01:15 Clear 72 22.2 63 17.2 73 73 E 9 15 29.98 1015 10 16 0.00 0.00
1:35 am 01:35 Clear 70 21.3 64 17.9 81 81 NE 3 6 29.97 1015 10 16 0.00 0.00
1:55 am 01:55 Clear 72 22.1 63 17 73 73 ENE 3 6 29.97 1015 10 16 0.00 0.00
2:15 am 02:15 Clear 72 22.3 62 16.5 70 70 NNE 9 15 29.98 1015 10 16 0.00 0.00
2:35 am 02:35 Clear 72 22 62 16.5 71 71 NNE 7 11 29.98 1015 10 16 0.00 0.00
2:55 am 02:55 Clear 72 22 62 16.5 71 71 NNE 5 7 29.98 1015 10 16 0.00 0.00
3:15 am 03:15 Clear 71 21.7 62 16.7 73 73 NE 3 6 29.97 1015 10 16 0.00 0.00
3:35 am 03:35 Partly Cloudy 71 21.7 62 16.4 72 72 NW 3 6 29.99 1016 10 16 0.00 0.00
3:55 am 03:55 Partly Cloudy 71 21.5 61 16.2 72 72 Calm 29.98 1015 10 16 0.00 0.00
4:15 am 04:15 Partly Cloudy 70 21.2 63 17.1 78 78 NNE 6 9 29.98 1015 10 16 0.00 0.00
4:35 am 04:35 Partly Cloudy 70 20.9 63 17.2 79 79 N 6 9 29.98 1015 10 16 0.00 0.00
4:55 am 04:55 Clear 69 20.6 62 16.8 79 79 N 6 9 29.97 1015 10 16 0.00 0.00
5:15 am 05:15 Clear 69 20.5 63 17 80 80 NNE 7 11 29.97 1015 10 16 0.00 0.00
5:35 am 05:35 Clear 69 20.4 63 17 81 81 N 3 6 29.97 1015 10 16 0.00 0.00
6:00 am 06:00 Mostly Clear 68 20 63 17 83 83 NNE 12 19 29.97 1015 10 16 0.00 0.00
6:55 am 06:55 Mostly Sunny 68 20 63 17 83 83 NNE 8 13 29.96 1015 10 16 0.00 0.00
7:55 am 07:55 Mostly Cloudy 72 22 63 17 73 73 Calm 29.97 1015 10 16 0.00 0.00
8:55 am 08:55 Mostly Cloudy 72 22 61 16 69 69 Calm 30.00 1016 10 16 0.00 0.00
9:55 am 09:55 Mostly Cloudy 73 23 61 16 65 65 ENE 7 11 30.01 1016 10 16 0.00 0.00
10:55 am 10:55 Mostly Cloudy 77 25 59 15 54 54 VRB 6 9 30.02 1017 10 16 0.00 0.00
11:50 am 11:50 Mostly Cloudy 81 27 57 14 45 45 VRB 6 9 30.01 1016 10 16 0.00 0.00
12:45 pm 12:45 Mostly Sunny 82 28 59 15 45 45 NNW 12 19 30.00 1016 10 16 0.00 0.00
1:55 pm 13:55 Mostly Cloudy 84 29 59 15 43 43 N 6 9 29.97 1015 10 16 0.00 0.00
2:55 pm 14:55 Mostly Cloudy 84 29 61 16 45 45 Calm 29.96 1015 10 16 0.00 0.00
3:55 pm 15:55 Mostly Sunny 86 30 55 13 35 35 N 7 11 29.95 1014 10 16 0.00 0.00
4:50 pm 16:50 Mostly Sunny 86 30 57 14 38 38 Calm 29.94 1014 10 16 0.00 0.00
5:50 pm 17:50 Mostly Sunny 86 30 59 15 40 40 N 9 15 29.94 1014 10 16 0.00 0.00
6:55 pm 18:55 Mostly Sunny 84 29 59 15 43 43 N 7 11 29.93 1014 10 16 0.00 0.00
7:55 pm 19:55 Mostly Sunny 82 28 61 16 48 48 NNE 5 7 29.94 1014 10 16 0.00 0.00
8:50 pm 20:50 Mostly Clear 73 23 66 19 78 78 Calm 29.96 1015 10 16 0.00 0.00
9:50 pm 21:50 Mostly Clear 72 22 66 19 83 83 Calm 29.98 1015 10 16 0.00 0.00
10:15 pm 22:15 Clear 74 23.6 67 19.5 78 78 S 5 7 29.99 1016 10 16 0.00 0.00
10:35 pm 22:35 Clear 75 24 67 19.4 76 76 SSE 5 7 29.99 1016 10 16 0.00 0.00
10:55 pm 22:55 Clear 76 24.2 66 19.1 73 73 Calm 30.00 1016 10 16 0.00 0.00
11:15 pm 23:15 Clear 73 22.6 67 19.2 81 81 Calm 30.01 1016 10 16 0.00 0.00
11:35 pm 23:35 Clear 75 23.7 67 19.2 76 76 Calm 30.01 1016 10 16 0.00 0.00
11:55 pm 23:55 Clear 74 23.1 67 19.2 79 79 N 5 7 30.01 1016 10 16 0.00 0.00

Powered by AerisWeather